EN

Hourly Weather Dziadownia

Today, 22 October, Thursday

Time Temperature Precipitation Wind Pressure Humidity
00:00 +10°C° 0 mm 5 mps 744 mmHg 71%
01:00 +10°C° 0 mm 5 mps 744 mmHg 73%
02:00 +10°C° 0 mm 5 mps 744 mmHg 72%
03:00 +10°C° 0 mm 5 mps 744 mmHg 72%
04:00 +10°C° 0 mm 5 mps 744 mmHg 71%
05:00 +10°C° 0 mm 5 mps 744 mmHg 71%
06:00 +10°C° 0 mm 5 mps 745 mmHg 72%
07:00 +10°C° 0 mm 5 mps 745 mmHg 72%
08:00 +13°C° 0 mm 5 mps 745 mmHg 67%
09:00 +14°C° 0 mm 5 mps 746 mmHg 63%
10:00 +16°C° 0 mm 5 mps 746 mmHg 58%
11:00 +17°C° 0 mm 5 mps 746 mmHg 57%
12:00 +19°C° 0 mm 5 mps 746 mmHg 55%
13:00 +20°C° 0 mm 4 mps 746 mmHg 54%
14:00 +19°C° 0 mm 4 mps 746 mmHg 58%
15:00 +18°C° 0 mm 3 mps 745 mmHg 62%
16:00 +18°C° 0 mm 3 mps 745 mmHg 66%
17:00 +17°C° 0 mm 3 mps 745 mmHg 68%
18:00 +16°C° 0 mm 3 mps 746 mmHg 71%
19:00 +14°C° 0 mm 4 mps 746 mmHg 74%
20:00 +13°C° 0 mm 4 mps 746 mmHg 75%
21:00 +13°C° 0 mm 4 mps 746 mmHg 76%
22:00 +13°C° 0 mm 3 mps 746 mmHg 78%
23:00 +12°C° 0 mm 4 mps 746 mmHg 78%

Tomorrow, 23 October, Friday

Time Temperature Precipitation Wind Pressure Humidity
00:00 +12°C° 0 mm 4 mps 746 mmHg 78%
01:00 +12°C° 0 mm 4 mps 746 mmHg 77%
02:00 +12°C° 0 mm 4 mps 745 mmHg 78%
03:00 +12°C° 0 mm 4 mps 745 mmHg 78%
04:00 +12°C° 0 mm 4 mps 745 mmHg 78%
05:00 +12°C° 0 mm 4 mps 744 mmHg 78%
06:00 +12°C° 0 mm 4 mps 744 mmHg 78%
07:00 +12°C° 0 mm 4 mps 744 mmHg 78%
08:00 +13°C° 0 mm 4 mps 744 mmHg 75%
09:00 +14°C° 0 mm 4 mps 744 mmHg 71%
10:00 +15°C° 0 mm 4 mps 744 mmHg 68%
11:00 +16°C° 0 mm 3 mps 744 mmHg 66%
12:00 +17°C° 0 mm 3 mps 743 mmHg 64%
13:00 +18°C° 0 mm 3 mps 743 mmHg 63%
14:00 +17°C° 0 mm 2 mps 743 mmHg 65%
15:00 +17°C° 0 mm 2 mps 743 mmHg 68%
16:00 +18°C° 0 mm 1 mps 743 mmHg 71%
17:00 +16°C° 0 mm 1 mps 743 mmHg 72%
18:00 +16°C° 0 mm 1 mps 743 mmHg 73%
19:00 +15°C° 0 mm 2 mps 743 mmHg 74%
20:00 +15°C° 0.1 mm 2 mps 743 mmHg 76%
21:00 +15°C° 0.1 mm 2 mps 743 mmHg 79%
22:00 +14°C° 0.1 mm 1 mps 742 mmHg 81%
23:00 +14°C° 0.2 mm 2 mps 742 mmHg 83%

Day after tomorrow, 24 October, Saturday

Time Temperature Precipitation Wind Pressure Humidity
00:00 +14°C° 0.2 mm 2 mps 742 mmHg 86%
01:00 +14°C° 0.2 mm 2 mps 742 mmHg 88%
02:00 +14°C° 1.5 mm 2 mps 742 mmHg 90%
03:00 +12°C° 1.5 mm 3 mps 742 mmHg 92%
04:00 +12°C° 1.5 mm 4 mps 742 mmHg 94%
05:00 +12°C° 1.4 mm 4 mps 742 mmHg 94%
06:00 +12°C° 1.4 mm 4 mps 742 mmHg 94%
07:00 +13°C° 1.4 mm 4 mps 742 mmHg 94%
08:00 +13°C° 0.1 mm 5 mps 743 mmHg 91%
09:00 +13°C° 0.1 mm 5 mps 743 mmHg 89%
10:00 +14°C° 0.1 mm 5 mps 744 mmHg 87%
11:00 +14°C° 0.1 mm 5 mps 744 mmHg 81%
12:00 +15°C° 0.1 mm 5 mps 744 mmHg 76%
13:00 +16°C° 0.1 mm 6 mps 745 mmHg 70%
14:00 +15°C° 0 mm 5 mps 745 mmHg 71%
15:00 +15°C° 0 mm 4 mps 745 mmHg 73%
16:00 +14°C° 0 mm 3 mps 745 mmHg 75%
17:00 +13°C° 0 mm 3 mps 746 mmHg 78%
18:00 +13°C° 0 mm 2 mps 746 mmHg 81%
19:00 +12°C° 0 mm 2 mps 746 mmHg 84%
20:00 +12°C° 0 mm 2 mps 747 mmHg 85%
21:00 +12°C° 0 mm 2 mps 747 mmHg 86%
22:00 +10°C° 0 mm 2 mps 747 mmHg 86%
23:00 +12°C° 0 mm 2 mps 747 mmHg 86%

, 25 October, Sunday

Time Temperature Precipitation Wind Pressure Humidity
00:00 +12°C° 0 mm 2 mps 747 mmHg 86%
01:00 +12°C° 0 mm 2 mps 747 mmHg 86%
02:00 +10°C° 0 mm 2 mps 747 mmHg 88%
03:00 +10°C° 0 mm 2 mps 747 mmHg 90%
04:00 +9°C° 0 mm 2 mps 747 mmHg 92%
05:00 +9°C° 0 mm 2 mps 747 mmHg 92%
06:00 +9°C° 0 mm 2 mps 747 mmHg 92%
07:00 +9°C° 0 mm 2 mps 747 mmHg 92%
08:00 +11°C° 0 mm 3 mps 747 mmHg 86%
09:00 +12°C° 0 mm 3 mps 747 mmHg 81%
10:00 +14°C° 0 mm 3 mps 747 mmHg 75%
11:00 +15°C° 0 mm 4 mps 746 mmHg 71%
12:00 +15°C° 0 mm 4 mps 746 mmHg 66%
13:00 +17°C° 0 mm 4 mps 746 mmHg 62%
14:00 +17°C° 0 mm 4 mps 745 mmHg 65%
15:00 +16°C° 0 mm 3 mps 745 mmHg 68%
16:00 +14°C° 0 mm 3 mps 745 mmHg 71%
17:00 +13°C° 0 mm 3 mps 745 mmHg 73%
18:00 +13°C° 0 mm 3 mps 745 mmHg 75%
19:00 +12°C° 0 mm 4 mps 745 mmHg 78%
20:00 +11°C° 0 mm 4 mps 745 mmHg 79%
21:00 +11°C° 0 mm 4 mps 744 mmHg 81%
22:00 +11°C° 0 mm 4 mps 744 mmHg 82%
23:00 +10°C° 0 mm 3 mps 744 mmHg 84%

25 October, Sunday

Time Temperature Precipitation Wind Pressure Humidity
00:00 +12°C° 0 mm 2 mps 747 mmHg 86%
01:00 +12°C° 0 mm 2 mps 747 mmHg 86%
02:00 +10°C° 0 mm 2 mps 747 mmHg 88%
03:00 +10°C° 0 mm 2 mps 747 mmHg 90%
04:00 +9°C° 0 mm 2 mps 747 mmHg 92%
05:00 +9°C° 0 mm 2 mps 747 mmHg 92%
06:00 +9°C° 0 mm 2 mps 747 mmHg 92%
07:00 +9°C° 0 mm 2 mps 747 mmHg 92%
08:00 +11°C° 0 mm 3 mps 747 mmHg 86%
09:00 +12°C° 0 mm 3 mps 747 mmHg 81%
10:00 +14°C° 0 mm 3 mps 747 mmHg 75%
11:00 +15°C° 0 mm 4 mps 746 mmHg 71%
12:00 +15°C° 0 mm 4 mps 746 mmHg 66%
13:00 +17°C° 0 mm 4 mps 746 mmHg 62%
14:00 +17°C° 0 mm 4 mps 745 mmHg 65%
15:00 +16°C° 0 mm 3 mps 745 mmHg 68%
16:00 +14°C° 0 mm 3 mps 745 mmHg 71%
17:00 +13°C° 0 mm 3 mps 745 mmHg 73%
18:00 +13°C° 0 mm 3 mps 745 mmHg 75%
19:00 +12°C° 0 mm 4 mps 745 mmHg 78%
20:00 +11°C° 0 mm 4 mps 745 mmHg 79%
21:00 +11°C° 0 mm 4 mps 744 mmHg 81%
22:00 +11°C° 0 mm 4 mps 744 mmHg 82%
23:00 +10°C° 0 mm 3 mps 744 mmHg 84%

26 October, Monday

Time Temperature Precipitation Wind Pressure Humidity
00:00 +10°C° 0 mm 3 mps 744 mmHg 85%
01:00 +10°C° 0 mm 3 mps 743 mmHg 86%
02:00 +9°C° 0 mm 3 mps 743 mmHg 87%
03:00 +9°C° 0 mm 3 mps 743 mmHg 89%
04:00 +9°C° 0 mm 3 mps 742 mmHg 90%
05:00 +9°C° 0 mm 3 mps 742 mmHg 90%
06:00 +8°C° 0 mm 3 mps 742 mmHg 90%
07:00 +8°C° 0 mm 3 mps 741 mmHg 90%
08:00 +10°C° 0 mm 3 mps 741 mmHg 84%
09:00 +11°C° 0 mm 3 mps 741 mmHg 79%
10:00 +12°C° 0 mm 3 mps 740 mmHg 73%
11:00 +14°C° 0 mm 3 mps 740 mmHg 68%
12:00 +15°C° 0 mm 4 mps 740 mmHg 64%
13:00 +17°C° 0 mm 4 mps 740 mmHg 60%
14:00 +16°C° 0 mm 3 mps 739 mmHg 64%
15:00 +16°C° 0 mm 3 mps 739 mmHg 68%
16:00 +14°C° 0 mm 3 mps 738 mmHg 71%
17:00 +14°C° 0 mm 3 mps 738 mmHg 73%
18:00 +13°C° 0 mm 3 mps 738 mmHg 75%
19:00 +13°C° 0 mm 3 mps 739 mmHg 77%
20:00 +12°C° 0 mm 3 mps 738 mmHg 78%
21:00 +12°C° 0 mm 3 mps 738 mmHg 79%
22:00 +12°C° 0 mm 3 mps 738 mmHg 80%
23:00 +12°C° 0.2 mm 4 mps 738 mmHg 80%

27 October, Tuesday

Time Temperature Precipitation Wind Pressure Humidity
00:00 +12°C° 0.2 mm 4 mps 738 mmHg 80%
01:00 +12°C° 0.2 mm 5 mps 738 mmHg 80%
02:00 +12°C° 0.1 mm 5 mps 738 mmHg 80%
03:00 +12°C° 0.1 mm 4 mps 739 mmHg 81%
04:00 +11°C° 0.1 mm 4 mps 739 mmHg 81%
05:00 +11°C° 0 mm 4 mps 739 mmHg 83%
06:00 +11°C° 0 mm 4 mps 739 mmHg 84%
07:00 +10°C° 0 mm 3 mps 740 mmHg 86%
08:00 +12°C° 0 mm 4 mps 740 mmHg 81%
09:00 +13°C° 0 mm 4 mps 740 mmHg 76%
10:00 +15°C° 0 mm 4 mps 740 mmHg 71%
11:00 +17°C° 0 mm 4 mps 741 mmHg 68%
12:00 +17°C° 0 mm 4 mps 741 mmHg 64%
13:00 +18°C° 0 mm 4 mps 741 mmHg 60%
14:00 +18°C° 0 mm 3 mps 741 mmHg 64%
15:00 +17°C° 0 mm 2 mps 741 mmHg 68%
16:00 +16°C° 0 mm 1 mps 741 mmHg 72%
17:00 +16°C° 0 mm 1 mps 742 mmHg 73%
18:00 +15°C° 0 mm 1 mps 742 mmHg 75%
19:00 +14°C° 0 mm 1 mps 742 mmHg 76%
20:00 +14°C° 0 mm 1 mps 742 mmHg 78%
21:00 +14°C° 0 mm 1 mps 743 mmHg 79%
22:00 +14°C° 0 mm 1 mps 743 mmHg 80%
23:00 +13°C° 0 mm 1 mps 743 mmHg 82%
Show more